Погода в Аяне

Погода в Аяне : погода сейчас, прогноз погоды и архив. Всё, что Вы хотите узнать о погоде в Аяне!

Хотите узнать прогноз погоды в Аяне? Тогда Вам сюда: Погода в Аяне

Поиск расширенной информации на нашем сайте:

Другие новости

Новости СМИ2

Главная страница сайта

Новости сайта

03.07.2017

Напоминаем, что на нашем специализированном сайте Метеоцентр.Азия вы можете получить высокодетализированные автоматические прогнозы погоды по пунктам России, СНГ и мира в авиационном формате (включающие направление и скорость ветра, видимость, явления погоды, количество и форму облачности, нижнюю и верхнюю границу облачности).


Погода в Аяне - сегодня

Время (UTC), дата Ветер
(°,м/с) 
Видим.   Явления Облачность Т
(°С)
Тd
(°С)
f(%) Тe
(°С)
Pmin
(гПа)
dP
(гПа)
Po
(мм)
O2
(г/м3)
Тmin Tmax R s Состояние
почвы
21 17.11.17 300 (СЗ) 20000 м    ясно 
-19.1 -31 34 -19  1016.6  -0.5  762  332  -19.2      равномерный
сухой снег
100% 
00 18.11.17 210 (ЮЗ) 20000 м    ясно 
-18.7 -31.1 33 -21  1016.4  -0.2  762  331  -19.3         
03 18.11.17 320 (СЗ) 20000 м    1/0 верхняя 
[Ci fib]
-16.7 -30.2 30 -19  1015.5  -0.9  761  328           
06 18.11.17 330 (СЗ) 20000 м    1/1 1000 м 
[Sc diur, vesp]
-17.5 -30.5 31 -18  1015.8  0.3  761  330           
09 18.11.17 180 (Ю) 20000 м    4/4 1000 м 
[Sc]
-18.2 -30.3 34 -18  1016.2  0.4  762  331    -16.5       
12 18.11.17 230 (ЮЗ) 20000 м    8/8 1000 м 
[Sc]
-18.3 -30.3 34 -22  1016.4  0.2  762  331           
15 18.11.17 320 (СЗ) 20000 м    10/10 1000 м 
[Sc]
-18.1 -29 38 -18  1015.5  -1  761  330           
18 18.11.17 220 (ЮЗ) н/о    н/о 
-18.7 -31.1 33 -23  1014.3  -1.1  760  331           
21 18.11.17 030 (СВ) 20000 м    10/0 средняя 
[As op]
-19 -30.8 35 -19  1013.7  -0.7  760  331  -19.1      равномерный
сухой снег
100% 
00 19.11.17 200 (Ю) 20000 м    6/0 средняя 
[Ac trans]
-19.6 -31.8 33 -22  1012.7  -1  759  331  -19.6         
03 19.11.17 170 (Ю) 20000 м    1/0 верхняя 
[Cc]
-17.5 -30.9 30 -20  1010.6  -2.1  757  328           
06 19.11.17 210 (ЮЗ) 20000 м    ясно 
-18.7 -31.2 32 -19  1008.8  -1.8  756  329           
09 19.11.17 240 (ЮЗ) 20000 м    ясно 
-19.7 -31.6 34 -22  1006.9  -1.9  755  330    -17.3       
12 19.11.17 060 (СВ) 20000 м    ясно 
-20.2 -32.1 34 -25  1004.8  -2.1  753  329           
15 19.11.17 050 (СВ) 2{12}  20000 м    ясно 
-20.5 -32.4 34 -23  1002.4  -2.4  751  329           
18 19.11.17 220 (ЮЗ) 2{12}  20000 м    ясно 
-20.8 -32.9 33 -24  1000.3  -2.1  750  329           
21 19.11.17 140 (ЮВ) 20000 м    ясно 
-21.3 -33.3 33 -24  999.5  -0.8  749  329  -21.3      равномерный
сухой снег
100% 
00 20.11.17 190 (Ю) 3-11{11}  20000 м    9/0 верхняя 
[Cs]
-21.4 -33.6 32 -26  998.3  -1.2  748  329  -21.4         
03 20.11.17 220 (ЮЗ) 4{12}  20000 м    3/0 верхняя 
[Ci fib]
-19.7 -33.1 29 -25  997  -1.2  747  326           
06 20.11.17 060 (СВ) 2{13}  20000 м    4/0 средняя, верхняя 
[Ac trans|Ci fib]
-20.7 -33.5 31 -24  997.8  0.9  748  328           
09 20.11.17 290 (З) 20000 м    3/0 верхняя 
[Ci fib]
-20.9 -32.9 33 -24  999.1  1.3  749  329    -19.6       
12 20.11.17 140 (ЮВ) 20000 м    ясно 
-21 -33.4 32 -24  999.9  0.8  749  329           
15 20.11.17 110 (В) 20000 м    ясно 
-20.8 -33.1 32 -24  1000.6  0.7  750  329           
18 20.11.17 100 (В) 20000 м    ясно 
-20.2 -32.4 33 -20  1001.6  751  328           
21 20.11.17 060 (СВ) 20000 м    ясно 
-19.5 -31.8 33 -22  1002.4  0.8  751  328  -21      равномерный
сухой снег
100% 
Время (UTC), дата Ветер
(°,м/с) 
Видим.   Явления Облачность Т
(°С)
Тd
(°С)
f(%) Тe
(°С)
Pmin
(гПа)
dP
(гПа)
Po
(мм)
O2
(г/м3)
Тmin Tmax R s Состояние
почвы

Для получения пояснительной информации подведите курсор к названию столбца.

ПОГОДА в Аяне - архив

Всё, что Вы хотите узнать о погоде в Аяне - удобно и подробно!

Выберите нужную дату (начиная с 1 января 2015* года) и нажмите кнопку "Найти".
Будут отображены архивные сводки погоды по пункту Аян, начиная с указанной даты.


Отображать данные в формате CSV (для использования в таблицах Excel)


Внимание! Наш архив погоды предназначен исключительно для личного некоммерческого использования в познавательных целях. Если Вам необходимы официальные справки о состоянии погоды (для производственных, юридических, коммерческих и т.п. целей), обращайтесь в органы Росгидромета.

*Примечание: данная дата относится к архиву по метеостанциям СССР (Россия, СНГ, Балтия).
Архив по метеостанциям Зарубежной Европы и Азии (кроме Китая) хранится 10 дней, по другим регионам земного шара (Китай, Африка, Америка, Австралия, Океания) - 1 день.

Аян - район местоположения метеостанции


Название, широта, долгота, высота метеостанции:
Аян 56.4°ш. 138.2°д. 8 м над ур. моря [Российская Федерация]

Дополнительная информация

В oтличие oт бoльшинства пoгoдных сайтoв мы публикуем пoдрoбную метеoинфoрмацию в детальнoм прoфессиoнальнoм фoрмате.

Характеристики температуры и влажнoсти вoздуха измеряются на высoте 2 м в тени вдали oт зданий и деревьев.
Скoрoсть ветра измеряется на высoте 10 м (на урoвне рoста челoвека скoрoсть ветра ниже в 1.5-2 раза). Если метеoстанция нахoдится в гoрoде или в лесу, тo скoрoсть ветра занижена на 2-4 м/с пo сравнению с oткрытым местoм. Скoрoсть ветра над акватoриями крупных рек и oзёр, а также на вершинах хoлмoв на 2-5 м/с выше, чем в oбычных услoвиях.
Атмoсфернoе давление в разных тoчках местнoсти мoжет значительнo oтличаться oт давления на метеoстанции, в зависимoсти oт услoвий рельефа (при пoдъёме на 10 м давление пoнижается примернo на 1 мм рт.ст.).